Weather in Iloilo City

Philippines     10°45′15″N   122°32′04″E
temp.,
°C
wind,
m/s
gust,
m/s
humid.,
%
clouds,
%
prec.,
mm/h
press.,
hPa
HPBL,
m
14 may, fri
fri1423:00+27nne5117625 0.0 1008614
02:00+27nne6117717 0.0 1007713
05:00+26nne5108078 0.0 1007630
08:00+29ne796981 0.0 10091037
11:00+33ne895169 0.0 10081354
14:00+34ene785025 0.1 10051428
17:00+29ne61072100 1.9 1006632
20:00+27nne5107849 2.0 1008491
15 may, sat
sat1523:00+26nne488251 0.1 1009359
02:00+26n478569 0.3 1007286
05:00+26nne378596 0.0 1008262
08:00+29nne5672100 0.0 1010721
11:00+33ne5654100 0.0 10081291
14:00+33ne6552100 0.1 10071258
17:00+31nne5762100 0.8 1007755
20:00+28nne4876100 1.8 1008341
16 may, sun
sun1623:00+27n487892 0.0 1009277
02:00+27nne488148 0.0 1007324
05:00+26nne488470 0.0 1008317
08:00+30nne5869100 0.0 1009840
11:00+34ne674944 0.0 10081411
14:00+35ne664511 0.1 10061564
17:00+32ne785711 0.0 1006982
20:00+28nne49735 0.1 1008451
17 may, mon
mon1723:00+27nne510769 0.0 1009513
02:00+27nne5108125 0.0 1007493
05:00+26nne5982100 0.0 1008498
08:00+30ne6867100 0.0 10091090
11:00+34ene67507 0.0 10081459
14:00+35ne674513 0.0 10061666
17:00+32ne685236 0.0 10061056
20:00+29nne4106775 0.1 1008421
18 may, tue
tue1823:00+28nne597122 0.0 1008445
02:00+27nne5978100 0.0 1006491
05:00+26nne5985100 0.1 1007456
08:00+30nne6868100 0.3 1009929
11:00+33nne6756100 0.1 10081210
14:00+33nne7753100 0.6 10061343
17:00+31nne5861100 0.1 1006913
20:00+28nne5974100 0.1 1008518